Wind_Speed
21 22 24 25 26 27 27 28 27 21 22 22 22 20 16 17 15 14 12 11 10 11 10 11 11 11 5 6 8 8 10 5 28 26 21 8 13 7 9 6 5 3 3 3 2 0 3
21 23 24 24 26 26 30 29 27 22 23 23 22 21 15 14 14 13 11 10 9 10 10 10 10 8 4 11 9 18 13 4 31 26 21 11 9 4 7 6 5 8 4 3 1 2 1
22 23 25 26 27 29 30 29 26 24 24 24 24 21 16 13 13 13 10 10 9 10 9 9 8 7 7 9 5 9 6 4 32 25 13 15 13 4 6 5 3 6 4 2 4 4 3
22 23 26 27 29 28 28 30 26 25 26 25 25 21 17 16 14 13 12 12 10 10 8 5 5 5 6 8 11 15 5 3 23 22 21 19 12 4 2 5 4 5 2 4 2 7 5
23 24 26 28 31 32 30 29 26 28 27 25 23 16 18 17 13 12 12 12 12 11 8 5 3 4 4 3 5 16 6 3 19 18 21 20 13 3 2 6 4 3 4 4 2 6 3
23 25 26 30 32 31 30 30 28 30 29 28 25 21 18 15 12 10 11 13 5 1 5 3 4 2 4 3 4 8 7 9 12 14 12 12 4 4 4 5 8 6 4 3 5 3 3
22 24 26 28 32 32 32 32 32 33 34 33 29 20 17 15 9 7 8 2 4 3 2 4 4 5 5 0 10 7 7 8 9 10 5 7 5 15 12 6 4 6 5 4 2 1 2
22 24 25 28 30 31 30 33 35 36 36 33 27 17 8 10 4 4 6 3 4 0 3 7 10 7 12 2 5 4 10 6 6 13 7 6 7 9 9 6 5 4 4 3 2 1 1
22 23 25 27 30 31 31 33 33 37 36 34 26 15 3 3 3 2 3 2 4 4 1 2 1 6 4 2 4 3 8 6 17 8 13 7 2 13 11 5 7 3 5 3 2 2 2
20 23 25 26 29 30 31 32 32 35 36 34 30 17 2 4 4 2 3 5 4 4 4 7 6 1 3 5 5 6 3 2 5 12 11 4 1 14 15 9 6 5 3 4 4 2 2
21 22 24 26 28 30 30 31 31 32 34 32 28 23 8 5 8 3 3 3 2 3 6 4 4 5 2 2 6 9 7 6 6 8 3 0 3 8 12 7 3 2 5 4 3 3 1
20 23 24 27 28 29 30 29 29 29 29 30 26 17 11 7 6 4 2 4 2 5 3 1 4 6 4 4 4 4 5 1 5 7 11 6 3 3 2 5 3 9 6 6 3 1 1
19 22 24 26 28 28 29 29 28 27 22 21 21 21 15 7 3 3 4 3 4 6 3 1 4 3 5 5 5 3 4 3 4 5 3 4 4 1 3 9 4 1 5 1 2 2 3
18 21 23 26 28 29 29 29 28 28 21 10 9 11 13 12 6 7 6 4 9 1 3 1 5 10 5 5 4 5 3 3 6 5 4 3 4 1 2 3 6 2 4 3 4 3 2
16 20 22 24 27 29 29 29 29 28 26 17 9 6 4 3 5 9 2 6 5 1 0 6 5 6 5 5 5 3 2 2 2 2 4 4 3 2 4 3 2 3 2 2 6 1 1
16 18 20 22 25 28 29 30 30 31 30 15 5 4 4 7 7 2 0 6 2 3 2 3 3 1 3 1 3 2 1 1 3 2 1 3 5 2 1 2 7 2 6 2 2 2 2
14 17 19 21 24 27 30 30 30 31 29 12 3 3 2 13 0 3 3 3 3 1 2 3 3 3 3 3 3 3 4 1 1 2 4 3 3 1 2 2 5 2 1 4 4 1 3
14 16 18 21 23 25 29 31 32 31 29 9 2 3 11 9 4 2 2 5 6 4 3 3 4 3 3 2 3 2 5 2 5 5 3 2 4 3 1 1 1 1 3 4 3 4 1
14 16 18 21 23 25 28 30 32 32 23 7 2 1 6 5 3 3 3 4 2 5 4 3 2 1 1 4 4 3 3 2 5 4 6 5 1 3 1 1 1 3 3 3 3 2 5
14 17 17 20 21 24 26 29 32 33 19 4 2 3 4 4 2 2 3 4 4 2 2 2 2 2 3 3 4 4 3 2 4 2 7 5 3 4 4 4 3 3 4 4 4 3 3
13 16 17 19 18 23 24 27 31 33 16 4 3 2 0 2 3 4 2 0 2 4 3 3 3 1 3 3 2 2 2 3 3 5 3 3 3 2 2 3 3 3 4 8 7 4 5
12 15 18 19 16 20 22 23 27 31 15 7 2 2 3 1 2 3 2 2 2 2 1 3 4 1 1 4 5 7 5 2 4 1 3 2 3 2 3 1 4 4 7 8 10 7 9
11 14 18 19 17 18 20 19 22 26 16 6 5 3 1 3 4 1 3 3 2 1 1 2 3 3 3 2 2 2 1 3 6 7 3 5 5 2 3 2 4 5 11 13 6 5 9
11 14 18 18 17 15 17 16 18 18 22 6 5 2 2 2 2 1 4 2 4 5 1 1 2 2 4 4 4 6 7 6 6 3 3 5 4 2 2 2 1 3 3 8 15 5 11
11 12 17 16 15 14 15 14 13 13 16 10 8 3 2 2 2 3 5 4 7 5 2 1 1 2 1 2 3 3 1 1 3 4 2 2 4 2 1 3 6 1 3 6 6 3 11
12 13 16 18 13 13 15 12 13 10 12 12 10 7 2 2 2 3 4 3 3 3 5 2 1 1 3 2 2 4 4 4 3 1 4 4 4 3 3 2 3 4 2 3 2 0 4
14 14 15 16 12 13 12 14 8 10 9 9 2 8 2 1 3 1 3 3 2 2 2 4 1 0 2 2 2 3 4 4 5 7 5 3 2 4 4 3 6 7 3 2 3 3 3
14 14 14 16 16 15 13 13 15 5 7 7 5 2 2 1 5 3 2 2 3 3 2 2 1 1 2 3 3 3 3 5 4 5 6 8 7 4 5 3 7 5 4 5 3 2 3
15 11 14 15 16 15 13 13 17 5 7 7 3 2 6 3 5 14 21 21 17 13 3 3 3 2 4 3 1 2 2 2 5 3 2 4 6 5 7 5 4 3 2 4 4 4 4
Wind_Direction
341 339 337 338 337 337 327 327 325 321 318 317 316 315 317 326 322 319 319 315 312 302 288 282 298 300 307 220 232 227 324 288 194 188 189 152 168 157 173 163 121 152 193 203 190 109 160
339 338 337 339 339 336 328 332 331 324 320 317 315 314 315 323 322 317 317 317 313 301 292 290 287 293 240 240 251 244 309 304 186 184 192 159 160 173 136 172 175 177 176 187 234 238 270
340 337 339 338 342 338 333 335 334 329 321 320 319 312 314 311 315 311 313 310 306 303 294 286 283 273 251 235 278 255 321 233 183 186 168 173 161 154 128 123 184 140 132 252 241 196 235
341 342 343 340 342 337 334 338 335 334 329 326 325 322 315 310 307 303 304 303 294 294 290 277 262 249 252 237 266 225 257 140 179 182 169 178 172 104 122 121 73 121 96 170 219 168 226
341 345 344 343 340 340 341 339 336 334 328 325 322 321 320 309 306 300 302 299 295 281 265 242 244 216 247 182 229 228 255 279 167 165 166 165 150 134 98 123 107 163 180 188 298 185 136
345 345 346 347 344 343 341 341 337 335 329 322 315 315 311 310 308 302 310 303 314 200 189 187 238 211 252 199 162 166 237 222 160 158 158 172 153 145 155 168 185 158 134 169 194 172 131
348 348 350 345 345 346 345 341 342 335 331 321 311 292 308 309 307 323 336 112 30 30 195 191 197 280 92 214 139 161 157 151 127 154 148 168 159 192 181 162 159 133 126 160 210 94 191
346 347 350 351 348 347 347 344 342 345 348 343 338 315 256 314 333 344 24 47 119 183 305 230 258 274 270 227 131 128 175 177 108 138 137 152 194 167 154 143 121 103 124 201 289 347 139
348 349 352 353 351 350 350 351 348 358 357 359 357 359 228 337 31 100 8 356 305 204 199 63 285 211 272 189 97 123 159 121 135 153 159 150 100 140 157 153 137 138 161 175 175 326 71
349 352 350 353 356 353 354 354 355 3 6 7 10 17 144 129 88 68 47 345 82 148 76 9 24 152 190 223 69 83 94 41 73 130 168 100 3 161 163 158 149 162 154 131 105 73 253
349 354 352 353 358 357 356 358 360 5 9 11 17 25 93 97 122 51 3 45 38 50 70 325 331 301 309 71 135 33 27 19 91 123 133 252 72 136 149 150 102 111 107 93 88 101 41
351 353 354 354 358 0 357 359 359 4 14 12 19 47 93 85 53 37 22 347 4 42 41 306 300 134 95 52 47 86 31 308 87 90 79 77 86 79 148 92 39 150 76 52 51 79 37
353 356 355 354 356 1 358 357 359 358 15 14 25 46 54 50 33 41 348 20 30 60 305 57 99 125 86 73 53 107 135 91 135 125 77 80 59 25 135 95 82 141 96 38 7 30 209
356 357 356 354 356 357 357 355 358 354 353 358 10 32 52 60 72 360 344 51 59 304 263 110 87 80 70 35 35 40 37 74 24 66 105 136 127 106 331 103 162 98 139 162 190 189 227
357 360 357 357 357 355 355 356 355 352 346 335 317 306 342 336 351 341 56 53 174 312 311 129 53 55 23 45 101 78 16 99 96 52 112 125 58 2 37 98 79 191 110 136 105 38 23
357 359 357 358 359 354 354 355 354 352 348 344 340 334 290 329 313 5 62 90 107 223 272 63 94 271 122 102 104 108 55 246 105 11 157 151 99 13 188 60 38 127 135 105 12 118 253
357 357 356 358 360 356 354 354 355 354 351 351 37 33 302 339 15 58 47 35 46 72 41 96 153 113 102 130 94 148 172 17 100 100 82 109 89 49 137 206 169 125 111 57 97 94 182
358 356 355 357 359 359 355 353 354 358 354 353 71 37 341 354 44 33 21 339 335 346 360 55 114 119 115 105 93 109 170 211 175 151 95 99 117 131 126 144 232 119 148 139 138 213 75
357 355 355 355 358 357 357 355 354 356 360 334 59 271 336 354 68 354 334 320 306 354 358 15 63 76 127 138 117 129 146 330 154 151 159 175 70 88 49 29 24 194 179 126 104 87 194
356 355 354 352 356 356 357 356 355 355 0 3 73 40 332 36 18 131 18 343 334 342 328 26 118 73 100 74 34 151 128 36 206 168 120 93 104 148 180 191 132 181 181 182 138 146 173
357 355 354 353 356 358 357 358 357 358 4 17 35 62 125 334 355 357 301 199 345 358 352 19 43 168 138 101 70 115 107 111 95 152 66 100 117 102 231 183 161 198 185 187 198 175 177
349 358 358 355 355 357 359 1 0 1 7 70 52 28 348 289 306 309 294 359 12 323 340 4 121 72 163 155 183 195 143 153 177 102 114 36 114 89 328 79 205 247 235 210 218 223 254
343 349 353 355 349 355 359 4 7 8 25 62 10 329 261 313 335 47 331 314 311 233 254 175 151 106 58 292 226 256 180 145 162 144 135 135 139 88 279 5 321 286 228 203 198 202 201
336 345 347 346 346 355 357 0 8 12 23 50 24 311 328 292 2 320 332 335 319 331 204 314 9 124 185 147 114 64 59 80 98 71 142 139 113 93 229 360 251 250 160 181 208 202 215
331 331 343 338 340 338 347 356 0 11 16 38 26 38 5 287 324 324 345 316 305 308 315 271 204 177 48 63 77 72 111 111 68 46 199 168 121 114 110 254 286 220 176 150 179 232 204
307 318 336 337 341 347 353 357 353 3 8 21 35 24 14 338 263 313 308 314 310 315 331 293 357 346 81 91 96 158 186 178 201 116 12 77 91 127 186 263 244 246 193 172 229 38 186
319 321 328 332 337 339 334 337 346 347 347 2 39 29 67 259 272 254 229 303 291 266 254 298 250 175 23 130 140 174 227 172 164 178 172 145 151 190 194 248 284 245 191 163 141 196 196
321 319 321 326 331 328 324 322 320 314 338 338 315 319 77 256 271 240 265 238 328 261 238 315 20 283 90 199 182 190 180 214 145 189 179 182 176 190 197 214 263 169 93 177 189 211 233
317 313 325 324 325 331 319 319 328 345 335 316 292 279 271 192 255 279 258 253 250 244 309 283 304 251 214 130 193 122 177 150 184 200 172 203 179 178 190 210 239 206 209 225 195 223 248
Height
835 831 826 823 820 815 809 803 798 795 791 787 783 780 777 775 773 771 769 768 767 767 768 769 770 769 767 767 759 755 754 757 763 767 770 773 779 783 788 791 794 796 796 792 790 792 795
834 830 825 819 816 811 806 800 795 791 787 783 778 775 773 773 770 769 767 765 764 764 764 765 766 766 766 763 753 752 753 754 758 764 766 770 774 779 785 788 791 791 792 793 791 792 793
832 829 824 819 814 809 803 798 792 788 783 779 775 772 770 768 767 766 764 763 761 761 761 762 762 763 760 753 752 749 754 753 755 761 765 769 773 778 781 790 788 792 798 796 795 794 795
832 828 824 819 813 807 801 795 789 784 780 776 772 768 766 764 763 762 760 759 758 758 758 759 760 761 754 747 750 751 754 751 757 762 766 770 773 777 780 783 790 795 796 803 793 794 793
831 827 823 818 812 805 798 792 786 781 776 772 768 765 763 761 759 758 757 756 755 755 756 757 759 759 750 746 746 746 747 751 757 762 766 770 773 778 782 787 794 798 804 804 795 792 792
830 826 821 817 810 804 797 790 784 778 773 768 764 761 759 757 756 755 754 752 751 751 753 756 757 760 747 744 743 743 747 750 753 760 768 772 774 781 783 785 790 797 801 802 798 795 796
830 826 820 814 809 802 796 789 784 776 769 762 757 753 755 754 753 753 752 751 755 756 753 753 751 744 740 743 744 746 746 745 752 758 761 766 774 774 776 782 789 793 796 796 797 796 797
828 825 818 813 807 802 795 789 781 773 765 757 750 746 745 751 751 752 752 753 754 756 755 747 748 747 746 744 743 747 748 747 755 756 763 772 771 773 779 787 789 791 796 800 799 797 796
829 824 818 811 806 801 795 788 780 772 765 756 749 744 745 749 750 752 753 754 754 754 754 746 745 743 743 744 742 746 745 747 758 769 765 765 770 772 777 787 790 794 795 801 799 800 801
827 824 819 811 805 801 794 787 780 773 765 758 751 746 746 750 753 752 754 754 754 754 773 752 747 743 742 740 745 747 750 750 757 767 770 774 774 771 776 784 784 790 791 796 800 802 803
829 823 819 813 806 801 794 788 781 774 767 761 755 749 748 751 753 755 757 756 755 756 786 755 750 747 740 744 745 753 754 752 757 771 774 784 774 775 776 781 782 791 794 800 808 813 812
828 825 820 816 809 802 796 788 783 777 770 766 760 756 755 756 757 759 758 757 757 774 780 757 752 745 745 745 748 758 760 762 765 770 775 777 782 785 786 787 789 796 802 814 822 819 814
827 824 821 815 811 804 798 791 784 779 773 769 766 763 759 760 762 761 760 760 773 764 769 754 750 745 745 750 753 755 759 764 764 773 780 779 784 788 788 790 794 795 801 819 817 824 804
826 823 820 816 811 806 800 793 786 779 773 769 768 766 764 763 763 763 761 769 773 763 764 751 746 751 752 754 759 759 760 765 768 771 785 783 790 789 786 786 791 798 797 809 798 809 806
826 821 819 816 811 806 801 794 786 779 774 767 765 765 764 763 762 761 763 765 782 766 764 750 748 759 760 758 760 766 771 771 770 770 776 786 797 790 790 788 792 802 812 812 834 853 829
824 821 817 814 809 805 800 794 787 779 771 765 764 764 762 761 761 760 758 753 761 766 755 755 758 760 766 762 765 765 770 768 771 771 772 783 799 794 792 790 796 793 805 812 831 830 806
823 821 818 813 809 804 798 793 787 779 771 766 764 766 761 759 759 761 762 762 756 756 754 755 765 765 766 766 767 769 774 770 768 773 773 781 788 798 792 794 799 803 808 817 818 825 804
824 820 818 814 809 805 799 792 787 780 771 767 766 775 760 758 766 766 766 767 761 758 755 754 756 760 764 766 769 769 771 769 769 770 774 779 796 803 795 798 797 796 801 807 815 823 834
823 820 818 815 810 805 800 794 787 780 775 771 774 775 761 759 772 771 768 765 764 760 757 753 754 754 759 764 768 769 770 769 769 769 773 777 798 816 799 801 799 797 803 806 817 824 828
824 821 819 815 812 807 802 795 788 780 774 773 776 781 774 769 773 770 771 771 765 760 757 756 757 756 757 762 767 770 770 771 771 768 768 773 792 798 798 798 798 803 802 804 806 816 812
823 821 818 815 811 807 802 797 790 781 775 774 778 782 781 782 778 779 773 768 765 765 760 757 756 755 758 765 766 769 769 770 770 768 773 776 799 806 793 791 797 794 794 801 806 801 802
823 820 818 815 812 808 803 798 792 784 776 777 783 784 781 782 783 780 774 767 764 762 762 758 759 758 756 762 763 771 769 771 771 773 775 781 797 804 805 792 797 798 793 795 795 793 794
822 821 818 814 812 809 804 800 796 789 782 783 787 786 785 783 784 779 777 768 762 762 761 759 758 758 761 762 762 762 763 765 765 773 779 779 794 811 806 796 797 797 786 785 785 788 782
820 818 818 815 812 808 805 802 799 795 791 790 790 789 784 786 786 782 778 777 767 765 758 760 758 755 761 762 763 766 770 771 771 773 772 782 787 802 816 801 800 765 769 771 773 773 778
820 817 814 813 811 808 806 804 801 798 795 792 792 791 789 782 780 782 779 778 772 766 762 760 760 760 760 761 769 771 766 765 772 775 773 771 782 802 804 792 784 759 767 771 769 759 766
819 816 813 811 810 808 805 803 802 799 797 795 794 793 792 792 789 782 777 775 778 774 769 761 761 761 761 769 770 774 782 773 779 776 776 778 778 786 791 793 784 760 754 757 756 763 756
817 815 813 811 809 807 805 802 801 799 797 796 795 794 793 795 787 782 784 778 774 775 777 771 762 763 764 769 769 774 779 770 776 775 773 777 779 779 784 778 777 760 753 755 759 762 753
814 813 811 809 807 805 803 801 798 798 797 795 794 793 795 795 787 782 781 781 780 773 770 771 769 766 769 765 761 764 774 770 774 771 763 768 775 771 774 781 784 755 757 756 753 752 751
812 810 809 808 805 803 800 799 797 796 795 794 793 792 792 792 784 778 776 777 778 778 783 772 766 765 761 765 771 772 767 771 767 755 767 770 767 770 770 768 755 751 748 748 751 751 750